Regional Weather Roundup
Issued by NWS

Home | Current Version | Previous Version | Graphics & Text | Print | Product List | Glossary On
Versions: 1 2 3 4 5 6 7 8 9 10 11 12 13 14 15 16 17 18 19 20 21 22 23 24 25 26 27 28 29 30 31 32 33 34 35 36 37 38 39 40 41 42 43 44 45 46 47 48 49 50
000
ASUS43 KTOP 272059
RWRKS

WEATHER ROUNDUP FOR KANSAS
NATIONAL WEATHER SERVICE GOODLAND KS
400 PM CDT MON APR 27 2015

NOTE:  "FAIR" INDICATES FEW OR NO CLOUDS BELOW 12,000 FEET WITH NO
SIGNIFICANT WEATHER AND/OR OBSTRUCTIONS TO VISIBILITY.

KSZ001>006-013>018-027>032-041>047-272200-
NORTHWEST KANSAS

CITY           SKY/WX    TMP DP  RH WIND       PRES   REMARKS
GOODLAND       MOSUNNY   59  29  31 N22G28    30.19F
HAYS           PTSUNNY   63  34  34 NE25      30.13S
HILL CITY      PTSUNNY   61  34  36 NE20G28   30.16S
RUSSELL        PTSUNNY   62  35  36 NE23      30.10S
$$

KSZ061>065-074>080-084>089-272200-
SOUTHWEST KANSAS

CITY           SKY/WX    TMP DP  RH WIND       PRES   REMARKS
DODGE CITY     CLOUDY    55  34  45 NE23G32   30.08S
ELKHART          N/A     42  33  70 N18         N/A
GARDEN CITY    CLOUDY    54  31  41 NE25G32   30.10S
GREAT BEND     PTSUNNY   61  36  39 NE21G30   30.08F
LIBERAL        CLOUDY    48  43  81 NE15G21   30.09R
$$

KSZ066>073-081>083-090>101-272200-
SOUTHEAST KANSAS

CITY           SKY/WX    TMP DP  RH WIND       PRES   REMARKS
CHANUTE        PTSUNNY   65  39  38 NE18G28   30.00F
COFFEYVILLE    PTSUNNY   65  38  36 NE17G29   29.97F
HUTCHINSON     PTSUNNY   63  35  35 NE20G28   30.04F
MEDICINE LODGE   N/A     55  37  50 NE20G25   30.01F
NEWTON         CLOUDY    61  39  44 NE17G24   30.05F
WICHITA INTL   PTSUNNY   62  35  36 NE25G31   30.01F
WICHITA JABRA  LGT RAIN  62  37  39 NE26G33   30.01F
WINFIELD       CLOUDY    61  34  36 NE22G32   29.98F
$$

KSZ007>012-019>026-033>040-048>060-102>105-272200-
NORTHEAST KANSAS

CITY           SKY/WX    TMP DP  RH WIND       PRES   REMARKS
CONCORDIA      PTSUNNY   64  35  34 NE17      30.11F
EMPORIA        PTSUNNY   64  35  34 NE18G31   30.05S
LAWRENCE       MOSUNNY   66  34  30 NE16G26   30.07F
MANHATTAN      MOSUNNY   65  37  35 NE20G26   30.08F
OLATHE IND     SUNNY     66  35  31 NE16G24   30.06F
OLATHE EXE     MOSUNNY   66  35  31 NE16G24   30.05F
SALINA         PTSUNNY   67  37  33 NE17G24   30.08F
TOPEKA BILLARD MOSUNNY   66  37  34 N16G25    30.07F
TOPEKA FORBES  MOSUNNY   66  36  32 NE16G23   30.06F
$$



USA.gov is the U.S. government's official web portal to all federal, state and local government web resources and services.